Weather History for Metz-Nancy-Lorraine, France

Change the Weather History Date:

Monday, November 26, 2012

  Actual Average (LFSN) Record (LFSN)
Temperature  
Mean Temperature 45 °F -  
Max Temperature 51 °F 37 °F 59 °F (2006)
Min Temperature 39 °F 31 °F 24 °F (2013)
Degree Days  
Heating Degree Days 20    
Moisture  
Dew Point 44 °F    
Average Humidity 90    
Maximum Humidity 100    
Minimum Humidity 87    
Precipitation  
Precipitation 0.00 in - - ()
Sea Level Pressure  
Sea Level Pressure 29.76 in    
Wind  
Wind Speed 10 mph ()    
Max Wind Speed 17 mph    
Max Gust Speed -    
Visibility 6.0 miles    
Events Rain    
Averages and records for this station are not official NWS values.
T = Trace of Precipitation, MM = Missing Value Source: Averaged Metar Reports

Daily Weather History Graph

Daily Weather History Graph

Search for Another Location

Airport:

Trip Planner

Search our weather history database for the weather conditions in past years. The results will help you decide how hot, cold, wet, or windy it might be!

Date:

Astronomy

Nov. 26, 2012 Rise Set
Actual Time 8:01 AM CET 4:43 PM CET
Civil Twilight 7:25 AM CET 5:19 PM CET
Nautical Twilight 6:45 AM CET 5:58 PM CET
Astronomical Twilight 6:07 AM CET 6:36 PM CET
Moon 3:31 PM CET 5:49 AM CET
Length of Visible Light 9h 53m
Length of Day
8h 42m
Waxing Gibbous, 96% of the Moon is Illuminated
Nov 26
Waxing Gibbous
Nov 28
Full
Dec 6
Last Quarter
Dec 13
New
Dec 20
First Quarter

Hourly Weather History & Observations

Time (CET) Temp. Windchill Dew Point Humidity Pressure Visibility Wind Dir Wind Speed Gust Speed Precip Events Conditions
12:00 AM 39.2 °F 32.0 °F 37.4 °F 93% 29.95 in 6.2 mi SSE 11.5 mph - N/A   Unknown
12:30 AM 39.2 °F 32.5 °F 37.4 °F 93% 29.92 in 6.2 mi SSE 10.4 mph - N/A   Unknown
1:00 AM 41.0 °F 35.2 °F 37.4 °F 87% 29.92 in 6.2 mi SSE 9.2 mph - N/A   Mostly Cloudy
1:30 AM 42.8 °F 37.0 °F 39.2 °F 87% 29.89 in 6.2 mi SE 10.4 mph - N/A   Mostly Cloudy
2:00 AM 42.8 °F 37.5 °F 39.2 °F 87% 29.89 in 6.2 mi SE 9.2 mph - N/A   Overcast
2:30 AM 42.8 °F 38.6 °F 39.2 °F 87% 29.89 in 6.2 mi SE 6.9 mph - N/A   Overcast
3:00 AM 42.8 °F 38.0 °F 39.2 °F 87% 29.86 in 6.2 mi ESE 8.1 mph - N/A   Overcast
3:30 AM 42.8 °F 37.5 °F 39.2 °F 87% 29.86 in 6.2 mi ESE 9.2 mph - N/A   Overcast
4:00 AM 42.8 °F 37.0 °F 39.2 °F 87% 29.83 in 6.2 mi ESE 10.4 mph - N/A Rain Light Rain
4:30 AM 41.0 °F 38.0 °F 39.2 °F 93% 29.83 in 6.2 mi NE 4.6 mph - N/A Rain Light Rain
5:00 AM 42.8 °F 38.0 °F 39.2 °F 87% 29.80 in 6.2 mi East 8.1 mph - N/A Rain Light Rain
5:30 AM 42.8 °F 37.0 °F 39.2 °F 87% 29.80 in 6.2 mi ESE 10.4 mph - N/A   Overcast
6:00 AM 42.8 °F 38.0 °F 39.2 °F 87% 29.80 in 5.6 mi ESE 8.1 mph - N/A   Overcast
6:30 AM 42.8 °F 40.1 °F 41.0 °F 93% 29.80 in 6.2 mi SE 4.6 mph - N/A   Overcast
7:00 AM 42.8 °F 37.5 °F 41.0 °F 93% 29.77 in 6.2 mi ESE 9.2 mph - N/A   Overcast
7:30 AM 44.6 °F 38.8 °F 42.8 °F 93% 29.77 in 5.6 mi SE 11.5 mph - N/A   Mostly Cloudy
8:00 AM 44.6 °F 38.8 °F 44.6 °F 100% 29.77 in 6.2 mi SE 11.5 mph - N/A   Overcast
8:30 AM 46.4 °F 41.5 °F 44.6 °F 93% 29.77 in 5.6 mi SE 10.4 mph - N/A   Overcast
9:00 AM 46.4 °F 41.1 °F 46.4 °F 100% 29.77 in 6.2 mi SSE 11.5 mph - N/A   Unknown
9:30 AM 48.2 °F - 46.4 °F 93% 29.77 in 6.2 mi SSE 12.7 mph - N/A   Overcast
10:00 AM 48.2 °F - 48.2 °F 100% 29.74 in 5.6 mi SSE 12.7 mph - N/A   Overcast
10:30 AM 50.0 °F - 48.2 °F 94% 29.74 in 5.6 mi SSE 11.5 mph - N/A   Overcast
11:00 AM 50.0 °F - 48.2 °F 94% 29.74 in 5.0 mi SSE 12.7 mph - N/A   Overcast
11:30 AM 51.8 °F - 50.0 °F 94% 29.74 in 4.3 mi South 10.4 mph - N/A Rain Light Rain
12:00 PM 51.8 °F - 50.0 °F 94% 29.71 in 4.3 mi South 10.4 mph - N/A Rain Light Rain
12:30 PM 51.8 °F - 50.0 °F 94% 29.71 in 4.3 mi SSW 11.5 mph - N/A Rain Light Rain
1:00 PM 51.8 °F - 50.0 °F 94% 29.71 in 6.2 mi SSW 10.4 mph - N/A Rain Light Rain
1:30 PM 51.8 °F - 50.0 °F 94% 29.71 in 6.2 mi SSW 11.5 mph - N/A   Overcast
2:00 PM 51.8 °F - 50.0 °F 94% 29.68 in 6.2 mi SSW 11.5 mph - N/A   Light Drizzle
2:30 PM 51.8 °F - 50.0 °F 94% 29.68 in 6.2 mi South 11.5 mph - N/A Rain Light Rain
3:00 PM 50.0 °F - 48.2 °F 94% 29.68 in 6.2 mi South 10.4 mph - N/A Rain Light Rain
3:30 PM 50.0 °F - 48.2 °F 94% 29.68 in 6.2 mi South 11.5 mph - N/A Rain Light Rain
4:00 PM 50.0 °F - 46.4 °F 87% 29.68 in 6.2 mi South 13.8 mph - N/A Rain Light Rain
4:30 PM 50.0 °F - 46.4 °F 87% 29.68 in 6.2 mi South 12.7 mph - N/A Rain Light Rain
5:00 PM 48.2 °F - 44.6 °F 87% 29.68 in 6.2 mi South 13.8 mph - N/A Rain Light Rain
5:30 PM 48.2 °F - 44.6 °F 87% 29.68 in 6.2 mi South 11.5 mph - N/A   Mostly Cloudy
6:00 PM 48.2 °F - 44.6 °F 87% 29.68 in 6.2 mi South 13.8 mph - N/A   Light Drizzle
6:30 PM 48.2 °F - 44.6 °F 87% 29.68 in 6.2 mi South 13.8 mph - N/A   Mostly Cloudy
7:00 PM 48.2 °F - 44.6 °F 87% 29.68 in 6.2 mi South 15.0 mph - N/A   Mostly Cloudy
7:30 PM 46.4 °F 40.1 °F 42.8 °F 87% 29.68 in 6.2 mi South 15.0 mph - N/A   Overcast
8:00 PM 46.4 °F 39.5 °F 42.8 °F 87% 29.71 in 6.2 mi South 17.3 mph - N/A   Unknown
8:30 PM 46.4 °F 39.8 °F 42.8 °F 87% 29.71 in 6.2 mi South 16.1 mph - N/A   Unknown
9:00 PM 46.4 °F 39.5 °F 42.8 °F 87% 29.71 in 6.2 mi South 17.3 mph - N/A   Unknown
9:30 PM 46.4 °F 39.8 °F 42.8 °F 87% 29.71 in 6.2 mi SSW 16.1 mph - N/A   Unknown
10:00 PM 46.4 °F 39.5 °F 42.8 °F 87% 29.71 in 6.2 mi SSW 17.3 mph - N/A   Overcast
10:30 PM 46.4 °F 40.1 °F 42.8 °F 87% 29.71 in 6.2 mi SSW 15.0 mph - N/A   Unknown
11:00 PM 46.4 °F 40.7 °F 42.8 °F 87% 29.71 in 6.2 mi SSW 12.7 mph - N/A   Unknown
11:30 PM 46.4 °F 41.1 °F 42.8 °F 87% 29.71 in 6.2 mi SSW 11.5 mph - N/A   Overcast